Вернуться в каталог

STARLINK-35922

АктивенСвязьVLEO
NORAD 66502·PAYLOAD·🇺🇸 United States

Запущен Nov 15, 2025 с Cape Canaveral Space Force Station

Loading…

Ближайшие Пролёты (ближайшие 24 часа)

TLE

СвежийSource: CelesTrak SupGP

Эпоха: Sep 15, 2026, 02:44 UTC

1 66502C 25263T   26258.11437500  .00029735  00000+0  10770-2 0  2581
2 66502  43.0015   1.2156 0001513 272.4858 155.8090 15.27561862    17

Отслеживайте STARLINK-35922 в реальном времени с AllMySat

Download on the App Store